Lugano, Switzerland

12:43 PM CET on February 08, 2016 (GMT +0100)
Lugano

Weather History for LSZA - February, 2013

Change the Weather History Date:

Monday, February 25, 2013

  Actual Average Record
Temperature  
Mean Temperature 34 °F -  
Max Temperature 37 °F 51 °F 77 °F (2012)
Min Temperature 32 °F 37 °F 24 °F (2003)
Degree Days  
Heating Degree Days 30    
Moisture  
Dew Point 33 °F    
Average Humidity 96    
Maximum Humidity 100    
Minimum Humidity 82    
Precipitation  
Precipitation 0.04 in 0.14 in - ()
Sea Level Pressure  
Sea Level Pressure 30.01 in    
Wind  
Wind Speed 2 mph ()    
Max Wind Speed 8 mph    
Max Gust Speed -    
Visibility 2.4 miles    
Events Rain , Snow    
Averages and records for this station are not official NWS values.
T = Trace of Precipitation, MM = Missing Value Source: Averaged Metar Reports

Daily Weather History Graph

Daily Weather History Graph

Search for Another Location

Airport or City:

Trip Planner

Search our weather history database for the weather conditions in past years. The results will help you decide how hot, cold, wet, or windy it might be!

Date:

Astronomy

Feb. 25, 2013 Rise Set
Actual Time 7:10 AM CET 6:04 PM CET
Civil Twilight 6:39 AM CET 6:35 PM CET
Nautical Twilight 6:05 AM CET 7:09 PM CET
Astronomical Twilight 5:30 AM CET 7:44 PM CET
Moon 6:03 PM CET (2/25) 6:30 AM CET (2/25)
Length of Visible Light 11h 55m
Length of Day
10h 54m
Full, 100% of the Moon is Illuminated
Feb 25
Full
Feb 25
Full
Mar 4
Last Quarter
Mar 11
New
Mar 19
First Quarter

Hourly Weather History & Observations

Time (CET) Temp. Windchill Dew Point Humidity Pressure Visibility Wind Dir Wind Speed Gust Speed Precip Events Conditions
12:00 AM 34 °F - 32 °F 88% 29.89 in - West 1.2 mph - -  
12:20 AM 32.0 °F - 32.0 °F 100% 29.83 in 0.8 mi Variable 1.2 mph - N/A Snow Light Snow
12:50 AM 32.0 °F - 32.0 °F 100% 29.86 in 1.7 mi Variable 2.3 mph - N/A Rain , Snow Light Rain
1:50 AM 32.0 °F 28.7 °F 32.0 °F 100% 29.86 in 1.2 mi South 3.5 mph - N/A Snow Light Snow
2:00 AM 33 °F - 32 °F 92% 29.91 in - SW 2.3 mph - -  
2:20 AM 32.0 °F 28.7 °F 32.0 °F 100% 29.86 in 2.2 mi SSW 3.5 mph - N/A   Scattered Clouds
2:50 AM 32.0 °F - 32.0 °F 100% 29.86 in - South 2.3 mph - N/A   Mostly Cloudy
3:00 AM 33 °F - 32 °F 93% 29.92 in - NNE 2.3 mph - -  
3:20 AM 32.0 °F - 32.0 °F 100% 29.86 in - Variable 1.2 mph - N/A   Mostly Cloudy
3:50 AM 32.0 °F - 32.0 °F 100% 29.86 in - Variable 1.2 mph - N/A   Mostly Cloudy
4:20 AM 32.0 °F - 32.0 °F 100% 29.89 in 1.7 mi Variable 1.2 mph - N/A   Scattered Clouds
4:50 AM 33.8 °F - 32.0 °F 93% 29.89 in 3.1 mi SE 2.3 mph - N/A   Mist
5:00 AM 33 °F - 32 °F 95% 29.95 in - SW 3.5 mph - -  
5:20 AM 32.0 °F - 32.0 °F 100% 29.89 in 0.2 mi Variable 1.2 mph - N/A Snow Snow
5:50 AM 32.0 °F - 32.0 °F 100% 29.92 in 3.1 mi Variable 2.3 mph - N/A   Mostly Cloudy
6:00 AM 33 °F - 31 °F 92% 29.96 in - NNW 2.3 mph - -  
6:20 AM 32.0 °F - 32.0 °F 100% 29.92 in 1.2 mi Variable 1.2 mph - N/A   Scattered Clouds
6:37 AM 32.0 °F - 32.0 °F 100% 29.92 in 3.1 mi Variable 2.3 mph - N/A   Mostly Cloudy
6:50 AM 32.0 °F - 32.0 °F 100% 29.92 in 3.1 mi Variable 2.3 mph - N/A   Mostly Cloudy
7:20 AM 32.0 °F - 32.0 °F 100% 29.92 in 3.1 mi South 2.3 mph - N/A   Mostly Cloudy
7:50 AM 32.0 °F - 32.0 °F 100% 29.92 in 3.1 mi Variable 2.3 mph - N/A Snow Mostly Cloudy
8:00 AM 32 °F - 31 °F 95% 30.00 in - North 1.2 mph - -  
8:20 AM 32.0 °F - 32.0 °F 100% 29.95 in 3.1 mi NNE 2.3 mph - N/A   Mostly Cloudy
8:50 AM 32.0 °F - 32.0 °F 100% 29.95 in 4.3 mi Variable 1.2 mph - N/A   Mostly Cloudy
9:00 AM 34 °F - 31 °F 82% 30.01 in - North 1.2 mph - -  
9:20 AM 33.8 °F - 32.0 °F 93% 29.98 in 3.7 mi Variable 2.3 mph - N/A   Mostly Cloudy
9:50 AM 33.8 °F - 32.0 °F 93% 29.98 in 1.2 mi Variable 2.3 mph - N/A Snow Snow
10:20 AM 33.8 °F - 32.0 °F 93% 29.98 in 1.2 mi Variable 2.3 mph - N/A Snow Light Snow
10:50 AM 33.8 °F - 32.0 °F 93% 30.01 in 0.9 mi NNW 1.2 mph - N/A Snow Snow
11:00 AM 33 °F - 32 °F 92% 30.06 in - NNE 1.2 mph - -  
11:20 AM 35.6 °F - 32.0 °F 87% 30.01 in 0.9 mi Variable 1.2 mph - N/A Snow Snow
11:50 AM 33.8 °F - 32.0 °F 93% 30.01 in 0.9 mi Variable 2.3 mph - N/A Snow Snow
12:00 PM 34 °F - 33 °F 93% 30.08 in - Calm Calm - -  
12:20 PM 33.8 °F - 33.8 °F 100% 30.04 in 0.9 mi Variable 2.3 mph - N/A Snow Snow
12:50 PM 33.8 °F - 33.8 °F 100% 30.04 in 0.7 mi SE 2.3 mph - N/A Snow Snow
1:20 PM 35.6 °F - 33.8 °F 93% 30.04 in 0.7 mi Variable 1.2 mph - N/A Snow Snow
1:50 PM 35.6 °F - 33.8 °F 93% 30.04 in 3.7 mi Variable 1.2 mph - N/A   Overcast
2:00 PM 37 °F - 34 °F 84% 30.07 in - SW 5.8 mph - -  
2:20 PM 37.4 °F 34.9 °F 33.8 °F 87% 30.04 in 3.7 mi South 3.5 mph - N/A   Overcast
2:50 PM 35.6 °F 31.7 °F 33.8 °F 93% 30.04 in 3.7 mi South 4.6 mph - N/A   Overcast
3:00 PM 35 °F - 34 °F 96% 30.09 in - SSW 3.5 mph - -  
3:20 PM 35.6 °F - 33.8 °F 93% 30.04 in 3.1 mi Variable 2.3 mph - N/A Rain Light Rain
3:50 PM 35.6 °F - 33.8 °F 93% 30.04 in 4.3 mi Variable 1.2 mph - N/A Rain Light Rain
4:20 PM 35.6 °F - 33.8 °F 93% 30.06 in 1.2 mi Variable 2.3 mph - N/A Snow Snow
4:50 PM 33.8 °F - 33.8 °F 100% 30.06 in 2.5 mi Variable 1.2 mph - N/A Rain , Snow Rain
5:00 PM 36 °F - 34 °F 90% 30.11 in - WSW 2.3 mph - -  
5:20 PM 33.8 °F - 33.8 °F 100% 30.06 in 2.5 mi Variable 1.2 mph - N/A Rain , Snow Rain
5:50 PM 33.8 °F 30.8 °F 33.8 °F 100% 30.06 in - South 3.5 mph - N/A Snow Snow
6:00 PM 35 °F - 35 °F 98% 30.14 in - SSW 8.1 mph - -  
6:20 PM 33.8 °F 27.7 °F 32.0 °F 93% 30.09 in 1.6 mi South 6.9 mph - N/A Snow Snow
6:50 PM 32.0 °F - 32.0 °F 100% 30.09 in 0.6 mi Variable 2.3 mph - N/A Snow Snow
7:20 PM 33.8 °F 27.0 °F 32.0 °F 93% 30.09 in 2.5 mi North 8.1 mph - N/A Rain , Snow Rain
7:50 PM 33.8 °F - 33.8 °F 100% 30.12 in 3.7 mi Variable 2.3 mph - N/A   Mostly Cloudy
8:00 PM 35 °F - 33 °F 90% 30.17 in - SE 1.2 mph - -  
8:20 PM 33.8 °F - 33.8 °F 100% 30.12 in 4.3 mi Variable 2.3 mph - N/A   Mostly Cloudy
8:50 PM 33.8 °F - 33.8 °F 100% 30.12 in 5.6 mi Variable 2.3 mph - N/A   Mostly Cloudy
9:00 PM 34 °F - 34 °F 99% 30.20 in - Calm Calm - -  
9:20 PM 33.8 °F 30.8 °F 33.8 °F 100% 30.15 in 4.3 mi North 3.5 mph - N/A   Mostly Cloudy
9:50 PM 33.8 °F - 32.0 °F 93% 30.15 in 3.1 mi Variable 2.3 mph - N/A Rain Rain
10:20 PM 33.8 °F - 33.8 °F 100% 30.15 in - Variable 1.2 mph - N/A   Scattered Clouds
10:50 PM 33.8 °F - 33.8 °F 100% 30.15 in 2.2 mi Variable 1.2 mph - N/A   Mostly Cloudy
11:00 PM 34 °F - 33 °F 97% 30.22 in - NNE 1.2 mph - -  
11:20 PM 33.8 °F - 33.8 °F 100% 30.15 in - Variable 1.2 mph - N/A   Scattered Clouds
11:50 PM 33.8 °F - 33.8 °F 100% 30.15 in 2.2 mi Variable 1.2 mph - N/A   Scattered Clouds